"Pseudo-MPEC" for A11gLiX

Created 2025 Jan 14 16:31:02 UT using Find_Orb

Click here for an explanation of pseudo-MPECs

 
 Astrometry: 
     A11gLiX* C2024 12 30.26132810 05 22.404-28 48 00.58   ~CV3l 19.47oVNEOCPW68
     A11gLiX  C2024 12 30.26358610 05 22.454-28 48 00.50   ~CV3l 19.35oVNEOCPW68
     A11gLiX  C2024 12 30.26675810 05 22.476-28 48 00.14   ~CV3l 19.37oVNEOCPW68
     A11gLiX  C2024 12 30.27224410 05 22.591-28 47 59.82   ~CV3l 19.38oVNEOCPW68

Station data:
(W68) ATLAS Chile, Rio Hurtado  (S30.471010 W70.764980)  Chile.  Observers L.
   Denneau, R. Siverd, J. Tonry, H. Weiland. Measurers L. Denneau, N.
   Erasmus, A. Fitzsimmons, A. Lawrence, J. Robinson, R. Siverd, J. Tonry, H.
   Weiland. 0.5-m reflector + CCD.

Orbital elements:  A11gLiX
   Perihelion 2024 Oct 27.70893 +/- 84 TT = 17:00:51 (JD 2460611.20893)
Epoch 2024 Dec 30.0 TT = JDT 2460674.5   Earth MOID: 0.3794   Ma: 0.0852
M   7.92852415 +/- 60               (J2000 ecliptic)             AutoNEOCP
n   0.12527081 +/- 0.314            Peri.  243.54220 +/- 110
a   3.95581623 +/- 6.61             Node   185.48998 +/- 31
e   0.6925911 +/- 0.245             Incl.   22.50759 +/- 22
P   7.86782                H 17.77  G  0.15   U 12.0  SR
q 1.21605283 +/- 0.665    Q 6.69557963 +/- 27.3
From 4 observations 2024 Dec. 30 (15.7 min); mean residual 0".11
Residuals in arcseconds: 
241230 W68  .01-  .02+    241230 W68  .24-  .07+    
241230 W68  .16+  .06-    241230 W68  .08+  .02-    

Ephemerides (geocentric):
Date (UTC) HH   RA             Dec           delta  r     elong  mag " sig PA
---- --------  ------------   ------------  ------ ------ -----  --- --------
2025 01 14 17  10 05 05.537   -27 14 54.02  .81566 1.5675 120.9 19.7  62d 109
2025 01 14 18  10 05 04.674   -27 14 26.89  .81567 1.5678 120.9 19.7  62d 108
2025 01 14 19  10 05 03.807   -27 13 59.69  .81568 1.5681 121.0 19.7  62d 108
2025 01 14 20  10 05 02.936   -27 13 32.43  .81570 1.5684 121.0 19.7  62d 108
2025 01 14 21  10 05 02.061   -27 13 05.10  .81571 1.5687 121.1 19.7  62d 108
2025 01 14 22  10 05 01.183   -27 12 37.70  .81572 1.5690 121.1 19.7  62d 108
2025 01 14 23  10 05 00.301   -27 12 10.24  .81573 1.5693 121.1 19.7  62d 108
2025 01 15 00  10 04 59.415   -27 11 42.71  .81575 1.5696 121.2 19.7  62d 108
2025 01 15 01  10 04 58.524   -27 11 15.11  .81576 1.5700 121.2 19.7  62d 108
2025 01 15 02  10 04 57.631   -27 10 47.44  .81577 1.5703 121.3 19.7  62d 108
2025 01 15 03  10 04 56.733   -27 10 19.71  .81578 1.5706 121.3 19.7  62d 108
2025 01 15 04  10 04 55.831   -27 09 51.91  .81580 1.5709 121.3 19.7  62d 108
2025 01 15 05  10 04 54.926   -27 09 24.05  .81581 1.5712 121.4 19.7  62d 108
2025 01 15 06  10 04 54.017   -27 08 56.11  .81582 1.5715 121.4 19.7  62d 108
2025 01 15 07  10 04 53.104   -27 08 28.11  .81584 1.5718 121.5 19.7  62d 108
2025 01 15 08  10 04 52.187   -27 08 00.05  .81585 1.5721 121.5 19.7  62d 108
2025 01 15 09  10 04 51.266   -27 07 31.91  .81586 1.5724 121.5 19.7  62d 108
2025 01 15 10  10 04 50.342   -27 07 03.71  .81588 1.5727 121.6 19.7  62d 109
2025 01 15 11  10 04 49.414   -27 06 35.44  .81589 1.5731 121.6 19.7  62d 109
2025 01 15 12  10 04 48.482   -27 06 07.11  .81591 1.5734 121.6 19.7  63d 109
2025 01 15 13  10 04 47.546   -27 05 38.71  .81592 1.5737 121.7 19.7  63d 109
2025 01 15 14  10 04 46.606   -27 05 10.24  .81594 1.5740 121.7 19.7  63d 109
2025 01 15 15  10 04 45.663   -27 04 41.70  .81595 1.5743 121.8 19.7  63d 109
2025 01 15 16  10 04 44.716   -27 04 13.10  .81596 1.5746 121.8 19.7  63d 109
2025 01 15 17  10 04 43.765   -27 03 44.43  .81598 1.5749 121.8 19.7  63d 109
2025 01 15 18  10 04 42.810   -27 03 15.69  .81599 1.5752 121.9 19.7  63d 109
2025 01 15 19  10 04 41.852   -27 02 46.88  .81601 1.5755 121.9 19.7  64d 109
2025 01 15 20  10 04 40.889   -27 02 18.01  .81602 1.5758 122.0 19.7  64d 109
2025 01 15 21  10 04 39.923   -27 01 49.07  .81604 1.5762 122.0 19.7  64d 108
2025 01 15 22  10 04 38.954   -27 01 20.06  .81605 1.5765 122.0 19.7  64d 108
2025 01 15 23  10 04 37.980   -27 00 50.99  .81607 1.5768 122.1 19.7  64d 108
2025 01 16 00  10 04 37.003   -27 00 21.85  .81608 1.5771 122.1 19.7  64d 108
2025 01 16 01  10 04 36.022   -26 59 52.64  .81610 1.5774 122.2 19.7  64d 108
2025 01 16 02  10 04 35.038   -26 59 23.36  .81612 1.5777 122.2 19.7  64d 108
2025 01 16 03  10 04 34.049   -26 58 54.02  .81613 1.5780 122.2 19.7  64d 108
2025 01 16 04  10 04 33.057   -26 58 24.61  .81615 1.5783 122.3 19.7  64d 108
2025 01 16 05  10 04 32.062   -26 57 55.13  .81616 1.5786 122.3 19.7  64d 108
2025 01 16 06  10 04 31.062   -26 57 25.59  .81618 1.5789 122.4 19.7  64d 108
2025 01 16 07  10 04 30.059   -26 56 55.98  .81620 1.5793 122.4 19.7  64d 108
2025 01 16 08  10 04 29.052   -26 56 26.30  .81621 1.5796 122.4 19.7  64d 108
2025 01 16 09  10 04 28.042   -26 55 56.55  .81623 1.5799 122.5 19.7  64d 108
2025 01 16 10  10 04 27.028   -26 55 26.74  .81625 1.5802 122.5 19.7  64d 108
2025 01 16 11  10 04 26.010   -26 54 56.86  .81626 1.5805 122.5 19.7  64d 108
2025 01 16 12  10 04 24.988   -26 54 26.91  .81628 1.5808 122.6 19.7  64d 108
2025 01 16 13  10 04 23.963   -26 53 56.89  .81630 1.5811 122.6 19.7  64d 108
2025 01 16 14  10 04 22.934   -26 53 26.81  .81631 1.5814 122.7 19.7  64d 108
2025 01 16 15  10 04 21.902   -26 52 56.66  .81633 1.5818 122.7 19.7  64d 108
2025 01 16 16  10 04 20.866   -26 52 26.44  .81635 1.5821 122.7 19.7  64d 108